Location: Newark
(40.3700°N, 15.2500°E)
Time: 08:09:25
(UTC+00:00)

LightSail 2 - Visible Passes

Search period start: 13 November 2019 00:00
Search period end: 23 November 2019 00:00
Orbit: 701 x 726 km, 24.0° (Epoch: 12 November)

Date Brightness Start Highest point End Pass type
(mag) Time Alt. Az. Time Alt. Az. Time Alt. Az.
13 Nov 7.5 03:23:17 12° S 03:24:01 12° S 03:25:58 10° SSE visible
13 Nov 7.6 05:07:02 10° SSW 05:08:39 11° S 05:10:16 10° S visible
14 Nov 7.5 04:09:00 10° SSW 04:11:01 12° S 04:13:02 10° SSE visible
15 Nov 7.5 03:13:48 12° S 03:13:48 12° S 03:15:30 10° SSE visible
16 Nov 7.5 03:59:18 10° SSW 04:00:20 11° S 04:01:22 10° S visible
17 Nov 7.7 03:04:15 10° SSE 03:04:15 10° SSE 03:04:25 10° SSE visible
